Regional Weather Roundup
Issued by NWS Cleveland, OH

Home | Current Version | Previous Version | Graphics & Text | Print | Product List | Glossary On
Versions: 1 2 3 4 5 6 7 8 9 10 11 12 13 14 15 16 17 18 19 20 21 22 23 24 25 26 27 28 29 30 31 32 33 34 35 36 37 38 39 40 41 42 43 44 45 46 47 48 49 50
000
ASUS41 KCLE 280602
RWRCLE
OHIO REGIONAL WEATHER ROUNDUP
NATIONAL WEATHER SERVICE CLEVELAND, OH
100 AM EST TUE FEB 28 2017

NOTE: "FAIR" INDICATES FEW OR NO CLOUDS BELOW 12,000 FEET WITH NO
SIGNIFICANT WEATHER AND/OR OBSTRUCTIONS TO VISIBILITY.

OHZ001>008-015>018-024>027-034-035-043-044-280700-
   NORTHWEST OHIO

CITY           SKY/WX    TMP DP  RH WIND       PRES   REMARKS
DEFIANCE       CLOUDY    40  38  93 SE6       30.16F
FINDLAY        MOCLDY    42  38  85 SE7       30.18S
TOLEDO EXPRESS PTCLDY    38  38 100 S3        30.18F
TOLEDO EXEC    PTCLDY    38  37  97 SE3       30.20F FOG
LIMA           CLOUDY    41  39  93 SE9       30.17F
$$

OHZ009>014-019>023-028>033-038-089-280700-
   NORTHEAST OHIO

CITY           SKY/WX    TMP DP  RH WIND       PRES   REMARKS
CLE-HOPKINS    CLOUDY    43  37  79 S7        30.25S
CLE-LAKEFRONT  CLOUDY    43  37  79 S12       30.22S
CUY CO. ARPT   NOT AVBL
LORAIN-ELYRIA  CLOUDY    39  35  86 S7        30.22F
ASHTABULA      CLOUDY    40  37  89 S8        30.25S
AKRON-CANTON   CLOUDY    37  34  89 S5        30.22F FOG
WOOSTER        CLOUDY    33  33 100 SE5       30.22F FOG     WCI  29
MANSFIELD      CLOUDY    39  37  92 S9        30.20F
YOUNGSTOWN     CLOUDY    39  36  89 SE5       30.25R
$$

OHZ042-051>053-060>062-070>072-077>081-280700-
  SOUTHWEST OHIO

CITY           SKY/WX    TMP DP  RH WIND       PRES   REMARKS
CINC-COVINGTON CLOUDY    45  40  82 S10       30.15F
CINC-LUNKEN    FOG       36  36 100 CALM      30.18F VSB 1
HAMILTON       CLOUDY    42  40  92 E5        30.17F
DAYTON         CLOUDY    41  38  89 SE9       30.17F
WRIGHT-PAT AFB MOCLDY    41  40  97 CALM      30.17F
DAYTON GENERAL CLOUDY    44  39  82 S8        30.16F
WILMINGTON     CLOUDY    41  37  86 S6        30.19F
$$

OHZ036-037-039>041-045>050-054>059-063>069-073>076-082>088-280700-
  CENTRAL AND SOUTHEAST OHIO

CITY           SKY/WX    TMP DP  RH WIND       PRES   REMARKS
COLUMBUS       CLOUDY    41  38  89 SE5       30.21F
OSU AIRPORT    CLOUDY    38  38 100 SE3       30.20F FOG
BOLTON FIELD   NOT AVBL
RICKENBACK AFB NOT AVBL
NEWARK         FOG       32  31  96 CALM      30.21F VSB 1
MARION         CLEAR     38  36  92 S9        30.20F
LANCASTER      CLOUDY    41  39  93 SE7       30.22F
ZANESVILLE     FOG       36  35  96 CALM      30.23S VSB 1/2
NEW PHILLY     NOT AVBL
$$



USA.gov is the U.S. government's official web portal to all federal, state and local government web resources and services.